This demonstration page uses our WeatherBlox Daily Observations layout. Learn more.

Left ArrowRight Arrow

34.74481, -87.66753

Hourly Observations for March 23, 2018

Temp ( °F °C ) Dew Point ( °F °C ) Humidity (%) Winds ( mph kmh ) Pressure ( in mb ) Visibility ( mi km ) Precip ( " mm )
12:53 am 00:53 Clear 42 5.6 35 1.7 76 76 Calm 30.30 1026 10 16 0.00 0.00
1:53 am 01:53 Clear 41 5 35 1.7 79 79 Calm 30.30 1026 10 16 0.00 0.00
2:53 am 02:53 Mostly Clear 40 4.4 36 2.2 86 86 Calm 30.30 1026 10 16 0.00 0.00
3:53 am 03:53 Cloudy 43 6.1 40 4.4 89 89 Calm 30.30 1026 10 16 0.00 0.00
4:53 am 04:53 Cloudy 44 6.7 38 3.3 79 79 Calm 30.30 1026 10 16 0.00 0.00
5:53 am 05:53 Cloudy 44 6.7 39 3.9 83 83 Calm 30.30 1026 10 16 0.00 0.00
6:53 am 06:53 Cloudy 44 6.7 39 3.9 83 83 ESE 5 7 30.30 1026 10 16 0.00 0.00
7:53 am 07:53 Cloudy 46 7.8 36 2.2 68 68 Calm 30.32 1027 10 16 0.00 0.00
8:53 am 08:53 Cloudy 47 8.3 38 3.3 71 71 Calm 30.32 1027 10 16 0.00 0.00
9:53 am 09:53 Cloudy 49 9.4 36 2.2 61 61 SE 5 7 30.31 1026 10 16 0.00 0.00
10:53 am 10:53 Mostly Cloudy 52 11.1 36 2.2 55 55 SSE 3 6 30.32 1027 10 16 0.00 0.00
11:53 am 11:53 Mostly Sunny 58 14.4 35 1.7 42 42 SE 3 6 30.29 1026 10 16 0.00 0.00
12:53 pm 12:53 Mostly Cloudy 59 15 37 2.8 44 44 SSE 8 13 30.26 1025 10 16 0.00 0.00
1:53 pm 13:53 Mostly Cloudy 59 15 34 1.1 39 39 S 8 13 30.22 1024 10 16 0.00 0.00
2:53 pm 14:53 Cloudy 59 15 36 2.2 42 42 SSE 5 7 30.20 1023 10 16 0.00 0.00
3:53 pm 15:53 Cloudy 60 15.6 37 2.8 42 42 SE 6 9 30.18 1022 10 16 0.00 0.00
4:53 pm 16:53 Mostly Cloudy 60 15.6 38 3.3 44 44 ESE 5 7 30.15 1021 10 16 0.00 0.00
5:53 pm 17:53 Cloudy 58 14.4 41 5 53 53 E 6 9 30.14 1021 10 16 0.00 0.00
6:53 pm 18:53 Partly Cloudy 56 13.3 41 5 57 57 E 8 13 30.12 1020 10 16 0.00 0.03
7:53 pm 19:53 Partly Cloudy 55 12.8 41 5 59 59 E 7 11 30.14 1021 10 16 0.00 0.00
8:53 pm 20:53 Mostly Cloudy 55 12.8 42 5.6 62 62 E 8 13 30.14 1021 10 16 0.00 0.00
9:53 pm 21:53 Mostly Cloudy 54 12.2 43 6.1 67 67 E 7 11 30.13 1020 10 16 0.00 0.00
10:53 pm 22:53 Cloudy 55 12.8 43 6.1 64 64 E 6 9 30.11 1020 10 16 0.00 0.00
11:53 pm 23:53 Mostly Cloudy 53 11.7 42 5.6 66 66 SE 7 11 30.08 1019 10 16 0.00 0.00

Powered by AerisWeather